Location: Stoke Bliss
(52.2667°N, 2.5167°W)
Time: 02:01:29
(UTC+00:00)

Cosmos 2278 Rocket - Pass Details

Date: 03 March 2021
Orbit: 841 x 845 km, 71.0° (Epoch: 11 April)

Event Time Altitude Azimuth Distance (km) Brightness Sun altitude
Rises 22:06:15 0° 321° (NW) 3,416 6.3 -36.4°
Reaches altitude 10° 22:09:10 10° 308° (NW) 2,475 5.4 -36.7°
Enters shadow 22:12:40 22° 271° (W) 1,758 4.1 -37.1°
